Wetbulb
65.03 65.90 63.92 61.70 54.34 53.95 50.29 51.52 55.45 55.28 58.09 62.99 62.12 61.35 63.93 67.02 64.98 60.30 73.09 73.79 74.03 74.57 74.53 73.68 72.82 73.20 73.14 73.20 73.38 73.93 74.75 74.75 74.86 74.85 74.75 74.93 74.71 74.53 74.63 74.63 74.81 74.68 74.42 74.01 73.23 73.18 72.70 71.50 70.95
62.30 62.82 61.63 58.69 51.59 48.94 51.13 54.47 53.31 57.12 62.84 63.73 63.98 64.26 62.82 64.97 69.40 70.12 71.22 73.61 74.39 74.74 74.96 74.25 72.61 73.03 73.46 73.59 73.51 73.59 74.11 74.34 74.58 74.65 74.68 74.63 74.24 74.26 74.04 74.14 74.17 73.98 73.55 73.15 73.10 72.71 73.05 71.87 70.44
62.36 62.24 57.55 55.52 52.50 49.38 50.26 53.96 54.97 60.52 63.94 63.81 63.19 66.20 66.24 66.84 70.82 71.29 73.18 74.02 74.21 74.17 75.09 73.75 72.03 72.26 72.83 73.23 73.41 73.32 73.17 73.30 73.72 73.95 73.97 73.72 73.80 73.60 73.60 73.35 73.30 73.21 73.17 73.00 73.09 73.24 73.28 71.94 70.69
59.66 60.00 58.19 51.30 49.36 52.85 53.35 54.47 55.77 60.57 62.31 64.06 63.77 63.82 68.89 70.91 70.84 72.76 73.84 74.29 74.14 74.20 74.52 71.43 71.17 72.16 72.84 73.07 73.00 73.00 72.91 72.68 72.95 73.24 73.69 73.36 73.28 73.16 72.66 72.41 72.46 72.81 73.18 73.29 73.31 73.31 73.21 72.02 71.06
59.12 57.37 52.16 50.74 51.18 53.20 55.62 55.79 57.48 59.87 59.85 61.78 63.24 63.60 66.30 68.67 72.75 73.87 73.53 73.86 73.42 73.96 74.01 73.52 70.85 71.81 72.50 72.78 72.57 72.24 72.04 72.19 72.74 73.37 73.47 73.13 72.71 72.81 72.44 72.19 72.11 72.53 72.61 72.66 72.91 73.33 73.53 72.32 71.16
54.08 55.74 49.52 48.47 50.45 53.39 55.59 56.75 57.95 59.49 61.20 62.02 60.79 63.65 66.23 70.74 72.02 73.20 73.57 73.35 74.03 73.50 73.66 73.24 71.21 70.89 70.85 70.90 70.70 70.55 70.62 71.30 71.62 72.05 72.64 72.93 72.44 72.26 72.04 71.99 71.89 72.01 72.12 71.92 72.00 71.85 71.98 71.80 71.66
52.39 51.79 50.03 50.48 50.44 51.72 54.42 57.32 56.69 59.74 60.45 61.07 63.08 61.61 66.65 68.67 71.61 72.33 72.74 73.41 73.61 74.20 73.46 73.33 72.72 70.48 68.22 67.82 67.82 67.98 68.90 69.71 70.12 70.20 70.35 70.23 69.90 69.62 69.22 69.29 69.32 69.68 69.68 69.62 69.35 69.42 69.54 69.83 70.26
54.63 52.92 49.53 50.33 49.62 50.06 55.39 56.05 58.36 60.05 59.68 64.07 65.15 60.88 63.27 68.78 70.65 71.94 72.31 72.76 73.15 73.01 73.11 72.52 72.26 71.86 70.86 69.16 66.08 66.03 66.36 66.83 67.64 68.64 68.73 68.58 68.32 68.35 68.21 67.64 66.67 67.15 67.20 67.45 67.40 67.25 67.40 67.67 68.44
56.10 49.43 47.74 49.26 50.05 51.12 55.89 54.25 58.23 61.50 61.59 63.19 64.07 64.77 69.11 69.69 70.36 70.78 70.86 71.41 71.86 71.65 71.52 71.73 71.44 71.20 70.56 69.10 66.67 65.60 65.85 66.24 66.97 67.33 67.44 67.90 69.93 69.18 68.90 63.36 63.20 63.29 64.41 65.44 65.22 65.59 66.43 67.13 67.17
52.20 49.43 49.52 52.50 52.89 52.14 53.98 54.71 56.14 57.65 59.75 60.44 61.99 66.68 69.73 68.88 69.49 69.19 69.04 68.71 69.43 70.44 71.73 70.54 70.44 70.12 70.04 68.70 68.93 69.04 68.86 68.99 68.91 68.83 69.59 69.02 69.41 67.64 67.29 63.45 60.89 60.44 61.08 63.02 63.95 65.34 65.89 66.28 69.92
52.57 48.88 52.10 52.04 51.90 52.80 52.97 53.53 56.32 56.28 55.63 59.04 60.58 64.70 66.86 68.31 68.63 68.46 68.20 68.31 68.52 70.08 70.96 71.02 68.87 69.37 69.72 68.11 67.51 67.69 67.86 67.52 66.86 67.64 68.20 68.48 68.66 68.41 68.28 67.85 67.20 66.67 63.70 66.30 66.44 67.53 67.69 67.58 67.72
49.37 51.90 52.16 52.38 52.24 51.83 51.47 54.32 54.22 56.06 56.83 60.00 61.25 65.31 66.34 66.90 67.60 67.96 67.54 67.69 67.81 68.15 69.30 70.78 70.73 70.29 69.85 68.37 66.82 66.07 65.21 65.11 64.21 63.59 64.86 66.86 66.65 65.71 64.89 64.08 64.08 63.75 63.13 62.87 63.64 64.21 64.15 64.66 65.44
50.37 51.20 52.29 52.70 52.37 52.46 52.89 51.90 52.84 54.35 58.26 59.44 61.10 64.79 65.26 66.07 67.59 68.73 68.60 67.70 66.65 65.85 66.33 67.51 67.88 67.12 66.21 65.21 64.14 63.57 62.97 62.64 62.21 61.11 60.53 61.68 61.43 61.07 61.06 60.40 60.08 59.59 59.18 59.03 59.08 59.50 59.25 59.88 61.20
52.10 51.60 51.57 52.16 52.00 52.53 50.93 51.28 52.34 53.81 56.87 57.27 58.11 62.09 64.32 65.62 66.48 67.63 67.29 65.29 64.99 64.37 64.42 65.13 64.62 64.67 64.16 63.45 63.16 61.95 61.38 60.52 59.59 58.56 57.91 58.57 58.46 58.29 58.25 57.90 57.11 56.73 56.92 56.80 57.09 57.02 57.19 57.69 58.90
51.23 47.88 49.79 50.59 51.38 50.84 52.03 49.06 49.26 53.69 55.62 55.59 57.92 60.33 62.55 64.56 65.94 66.16 66.16 64.34 64.28 63.83 63.99 63.26 62.92 63.18 62.40 61.78 61.15 60.34 59.18 59.02 57.52 56.27 56.03 55.98 55.83 56.17 56.37 55.57 55.44 55.28 55.90 56.25 56.28 56.02 56.26 55.86 56.55
48.61 49.44 45.98 50.75 49.68 50.64 50.37 45.52 50.77 53.78 53.60 53.91 56.03 57.46 58.94 62.29 64.22 65.80 64.87 64.05 63.64 63.45 62.69 62.05 61.29 61.64 61.18 60.37 59.79 58.55 57.80 57.07 56.21 55.46 54.74 54.51 54.51 55.19 55.23 54.48 54.19 54.58 55.05 54.72 54.30 54.34 54.29 54.42 54.81
49.64 45.02 47.56 48.64 50.52 49.39 48.64 46.14 50.81 53.32 53.18 52.77 54.31 55.89 57.28 60.02 62.91 64.57 64.21 63.00 62.28 62.65 62.27 60.35 60.68 60.12 59.54 59.14 57.95 57.04 56.36 55.17 54.38 54.23 53.84 53.68 53.34 53.90 54.14 53.50 53.35 54.16 53.48 53.42 52.80 53.05 53.31 52.75 53.35
46.73 47.29 48.47 47.36 50.41 48.79 47.65 47.48 50.23 51.50 52.04 52.97 54.04 54.73 56.02 58.45 60.93 63.27 62.77 61.98 61.12 61.65 61.65 59.95 59.70 59.12 58.54 57.53 56.74 55.44 54.29 53.71 53.46 52.92 52.69 53.16 52.51 52.70 53.22 52.90 52.72 53.03 52.39 52.22 51.83 51.68 52.73 52.73 51.88
49.16 47.63 46.60 48.88 51.45 47.67 47.38 47.99 49.37 51.28 51.16 51.33 52.31 53.18 54.77 57.54 61.22 62.59 61.05 60.19 59.60 60.03 60.00 58.82 57.99 57.86 57.10 56.22 54.99 54.00 52.41 51.82 51.78 51.91 51.91 51.91 51.91 51.64 52.06 52.07 51.82 52.19 51.27 51.11 51.03 50.72 50.73 51.36 51.40
48.76 47.27 47.09 49.71 51.11 50.16 48.50 47.81 50.62 51.53 51.50 51.94 52.19 52.99 54.21 56.40 59.30 60.46 58.92 58.06 57.84 58.24 59.11 58.21 57.54 57.21 57.17 56.97 56.57 55.52 53.26 52.34 51.86 51.35 50.84 50.79 50.61 50.52 50.23 50.74 50.59 50.45 50.14 49.81 49.49 49.28 48.76 50.35 50.48
47.69 47.06 47.46 47.28 50.06 51.07 48.58 46.65 48.93 51.50 52.39 52.78 52.68 53.26 54.45 55.78 57.85 58.85 56.92 56.54 56.81 56.95 57.91 57.57 57.55 57.35 57.57 57.30 55.39 53.69 52.17 51.13 50.21 50.11 49.62 49.14 49.08 49.26 49.68 49.32 49.67 49.79 49.63 48.14 47.66 47.46 47.40 46.68 48.85
45.82 50.60 49.31 47.75 45.54 42.37 49.73 41.28 47.84 50.37 50.91 51.87 52.17 52.91 53.44 55.28 57.78 58.55 56.68 55.67 56.00 56.83 57.88 57.92 57.57 57.15 56.63 55.73 54.01 52.10 50.16 49.34 50.90 50.25 49.43 48.31 48.31 47.93 48.50 48.59 48.25 47.84 47.87 46.83 46.48 46.77 46.79 46.43 45.10
47.52 50.76 47.77 47.73 45.70 45.40 45.52 43.26 46.62 50.44 48.70 51.07 51.38 52.57 53.73 55.27 56.95 57.88 56.60 56.08 56.15 56.60 56.31 56.95 56.96 56.32 55.24 54.56 54.83 52.80 51.81 51.28 50.39 49.33 48.52 48.02 47.28 47.10 46.62 46.79 46.28 45.71 45.57 45.11 44.79 44.98 44.90 45.18 44.61
50.55 47.78 46.70 46.80 45.23 38.99 44.13 44.31 44.82 47.69 48.90 50.38 51.72 52.30 52.95 54.28 56.02 58.20 58.06 56.79 55.91 56.23 55.73 56.04 55.39 54.67 54.44 54.29 54.12 53.08 51.80 50.06 48.65 48.40 47.91 47.34 46.56 45.09 44.46 44.23 44.00 44.04 43.40 43.26 43.55 43.81 43.16 43.25 43.49
47.11 44.42 38.36 37.75 37.48 36.94 46.13 44.26 46.38 48.58 49.63 50.10 50.15 51.29 52.61 54.37 55.49 56.63 56.21 55.12 54.69 54.17 53.79 53.84 53.86 52.87 53.31 52.91 52.22 51.61 50.92 49.88 49.00 48.52 47.26 45.66 44.27 43.04 41.84 43.31 42.37 41.74 41.27 41.73 42.01 41.59 41.94 42.21 41.76
44.90 44.56 39.03 32.19 35.34 39.60 45.69 41.17 45.28 49.48 50.40 51.54 51.22 51.77 52.99 53.20 54.42 55.06 55.84 54.92 53.74 52.61 52.09 51.65 51.41 50.57 50.73 50.56 50.23 49.86 48.87 48.01 46.99 45.73 45.01 43.90 42.23 40.83 41.34 41.48 41.29 40.60 40.41 41.21 41.70 41.56 40.91 41.60 41.55
44.24 41.52 46.36 39.50 40.48 35.22 39.47 44.44 47.22 48.30 49.10 49.38 49.59 50.40 50.95 51.98 52.72 53.08 54.41 54.03 52.87 51.21 50.86 50.40 49.90 48.74 48.59 48.52 47.86 47.43 47.28 45.66 44.15 43.67 42.76 40.85 40.21 39.98 40.48 40.96 40.11 39.27 39.35 39.47 40.34 40.02 39.82 40.71 40.27
45.16 45.44 38.90 38.64 29.37 29.17 36.93 39.45 39.65 43.66 46.42 47.96 48.36 49.24 49.95 50.69 51.03 52.00 52.98 52.78 52.61 52.27 51.44 51.05 50.56 48.06 47.68 47.06 46.60 45.20 44.22 44.14 42.59 41.19 40.14 39.26 39.13 39.77 39.99 39.50 38.68 38.00 38.36 38.74 38.76 38.85 38.38 38.56 38.38
40.95 40.15 40.42 41.27 38.69 31.75 30.94 35.88 43.98 44.06 46.33 46.71 47.64 48.61 49.16 50.07 50.90 51.32 52.33 52.99 52.80 52.12 51.12 49.79 48.45 47.15 45.53 45.02 44.42 43.10 41.86 41.24 40.50 39.40 39.03 39.28 39.91 39.28 38.79 38.28 37.48 37.09 37.41 37.64 37.89 36.69 36.83 36.45 36.99
43.84 41.90 41.60 35.67 33.20 36.20 35.44 35.76 46.10 45.15 45.68 46.66 46.78 47.24 48.40 49.08 49.89 52.18 52.31 52.17 51.68 50.69 49.64 48.09 46.75 43.96 44.17 43.37 41.63 41.01 40.57 40.55 39.31 38.74 39.13 39.56 38.91 39.10 38.08 37.73 37.07 36.60 36.47 36.82 36.00 35.36 35.44 35.05 34.88
MSLP
1009.15 1008.38 1007.15 1005.91 1004.35 1001.22 998.54 997.25 998.14 998.57 999.22 999.83 999.85 1000.11 1000.77 1002.24 1002.88 1004.65 1006.46 1007.64 1008.07 1009.48 1010.83 1011.34 1011.93 1012.24 1012.57 1012.89 1013.28 1013.41 1013.39 1013.53 1013.76 1013.87 1013.99 1014.26 1014.43 1014.70 1014.92 1015.03 1015.11 1015.12 1015.19 1015.20 1015.26 1015.29 1015.40 1015.54 1015.69
1008.27 1006.95 1006.45 1004.45 1002.19 998.88 996.73 997.09 998.42 998.47 999.63 1000.69 1001.16 1001.45 1001.54 1003.67 1004.91 1006.24 1007.25 1007.90 1008.48 1009.52 1010.35 1011.38 1012.25 1012.36 1012.62 1012.82 1013.09 1013.44 1013.61 1013.85 1014.04 1014.12 1014.23 1014.41 1014.63 1014.82 1015.06 1015.23 1015.35 1015.36 1015.42 1015.42 1015.45 1015.48 1015.48 1015.63 1015.74
1008.49 1006.96 1005.37 1002.52 1000.41 998.41 997.11 997.91 998.25 999.34 1000.67 1001.04 1001.44 1001.62 1002.97 1004.99 1005.77 1006.62 1007.84 1008.13 1008.62 1009.22 1010.15 1011.90 1012.50 1012.70 1013.01 1012.94 1013.18 1013.36 1013.73 1014.04 1014.13 1014.30 1014.28 1014.36 1014.57 1014.82 1015.00 1015.21 1015.30 1015.43 1015.54 1015.55 1015.52 1015.54 1015.66 1015.81 1015.94
1006.83 1005.61 1004.61 1002.25 999.58 998.05 998.28 998.54 999.07 1000.11 1000.90 1001.04 1001.49 1002.94 1005.68 1007.19 1006.74 1007.39 1008.25 1008.62 1008.95 1009.74 1010.87 1012.58 1012.77 1013.03 1013.07 1013.39 1013.54 1013.71 1014.08 1014.30 1014.33 1014.52 1014.58 1014.50 1014.66 1014.82 1015.03 1015.17 1015.30 1015.42 1015.48 1015.55 1015.54 1015.59 1015.76 1015.75 1015.71
1006.32 1004.74 1002.61 1000.76 999.39 998.39 999.18 999.41 999.65 1000.07 1000.61 1001.27 1001.57 1003.14 1005.94 1008.09 1007.67 1007.75 1008.30 1008.79 1009.41 1010.39 1011.74 1012.52 1013.09 1013.26 1013.24 1013.57 1013.90 1014.07 1014.40 1014.50 1014.53 1014.65 1014.71 1014.75 1014.85 1015.00 1015.15 1015.27 1015.38 1015.44 1015.50 1015.61 1015.61 1015.64 1015.67 1015.71 1015.76
1005.14 1003.81 1002.05 1000.00 998.40 998.14 999.66 999.97 999.93 999.94 1000.64 1001.31 1002.00 1003.37 1006.08 1008.08 1008.05 1007.95 1008.55 1009.17 1009.79 1010.67 1011.67 1012.54 1013.42 1013.61 1013.80 1013.93 1014.20 1014.38 1014.63 1014.74 1014.84 1014.89 1014.97 1014.98 1015.09 1015.23 1015.38 1015.45 1015.57 1015.66 1015.69 1015.60 1015.62 1015.66 1015.63 1015.64 1015.68
1004.88 1003.03 1001.40 1000.27 998.95 998.58 999.73 1000.52 1000.14 1000.03 1000.68 1001.22 1002.00 1003.37 1006.42 1007.72 1008.06 1008.51 1008.88 1009.58 1010.13 1010.54 1011.44 1012.14 1012.99 1013.86 1014.19 1014.35 1014.58 1014.84 1014.98 1014.90 1015.00 1015.14 1015.25 1015.27 1015.37 1015.50 1015.67 1015.73 1015.82 1015.85 1015.85 1015.73 1015.67 1015.60 1015.57 1015.58 1015.58
1004.54 1003.22 1001.57 1000.16 999.49 998.89 999.66 1000.94 1000.57 1000.19 1000.58 1001.24 1002.49 1002.91 1005.25 1007.04 1008.33 1008.55 1009.13 1009.75 1010.35 1010.95 1011.78 1012.33 1012.99 1013.45 1013.98 1014.54 1015.03 1015.14 1015.26 1015.37 1015.38 1015.52 1015.62 1015.72 1015.75 1015.85 1015.94 1015.89 1016.24 1016.23 1016.17 1015.99 1015.87 1015.74 1015.64 1015.47 1015.30
1004.88 1003.33 1001.13 1000.03 999.52 999.85 1000.57 1001.03 1001.01 1000.75 1000.92 1002.25 1003.35 1003.95 1004.52 1006.96 1008.10 1008.46 1008.94 1009.57 1010.33 1011.19 1012.03 1012.69 1013.02 1013.43 1013.94 1014.40 1015.08 1015.25 1015.39 1015.54 1015.50 1015.58 1015.69 1015.84 1015.62 1015.69 1015.68 1016.60 1016.63 1016.55 1016.35 1016.20 1016.01 1015.83 1015.62 1015.29 1014.82
1004.30 1002.59 1001.02 1000.93 1000.86 1001.04 1001.33 1001.18 1000.73 1001.52 1001.25 1002.42 1003.66 1005.29 1006.27 1007.48 1007.69 1007.94 1008.19 1008.82 1009.71 1010.54 1011.69 1012.56 1013.16 1013.32 1013.45 1013.95 1014.46 1014.73 1014.89 1015.00 1015.09 1015.19 1015.19 1015.59 1015.66 1015.78 1015.75 1016.51 1016.68 1016.60 1016.40 1016.18 1015.92 1015.71 1015.34 1014.95 1013.75
1003.80 1002.84 1001.74 1001.92 1002.62 1002.38 1001.72 1001.32 1000.98 1001.64 1001.35 1002.12 1003.46 1005.01 1006.39 1007.08 1007.38 1007.54 1007.68 1008.21 1008.97 1010.06 1010.83 1012.13 1013.10 1013.28 1013.21 1013.94 1014.23 1014.33 1014.56 1014.90 1015.41 1015.57 1015.44 1015.56 1015.37 1015.64 1015.45 1015.54 1015.73 1015.80 1015.89 1015.35 1015.25 1014.86 1014.63 1014.77 1014.73
1004.02 1003.29 1002.95 1002.90 1002.64 1003.01 1002.29 1001.71 1001.33 1001.63 1001.59 1001.74 1002.54 1004.09 1005.95 1006.53 1006.76 1006.77 1006.97 1007.70 1008.77 1010.03 1010.82 1011.55 1012.52 1012.91 1012.86 1013.23 1013.45 1014.25 1014.72 1015.01 1015.35 1015.96 1015.93 1015.67 1015.35 1015.77 1015.84 1015.94 1015.88 1015.93 1015.97 1015.97 1015.67 1015.29 1015.49 1015.20 1014.94
1004.28 1003.56 1003.11 1003.33 1003.21 1003.31 1002.94 1002.34 1002.02 1001.75 1001.88 1002.53 1002.66 1003.96 1005.35 1006.13 1006.45 1006.50 1006.64 1007.46 1009.09 1010.04 1010.98 1011.70 1012.46 1012.99 1013.39 1013.66 1014.10 1014.62 1015.07 1015.40 1015.84 1016.19 1016.68 1016.23 1016.04 1016.43 1016.30 1016.51 1016.35 1016.51 1016.51 1016.34 1016.20 1015.95 1015.87 1015.64 1015.17
1004.27 1004.19 1003.57 1003.36 1003.04 1003.02 1003.04 1002.47 1002.22 1001.92 1002.35 1002.74 1003.05 1003.87 1004.77 1005.46 1005.82 1006.13 1006.73 1007.83 1009.00 1010.21 1011.22 1012.05 1012.57 1013.23 1013.48 1014.04 1014.48 1014.96 1015.50 1016.02 1016.32 1016.76 1017.04 1017.11 1016.81 1017.08 1016.70 1016.73 1016.79 1016.85 1016.98 1017.07 1016.63 1016.41 1016.14 1015.79 1015.45
1005.45 1004.54 1003.25 1002.52 1002.43 1002.54 1002.69 1002.40 1001.68 1001.66 1001.78 1002.57 1002.95 1003.47 1003.95 1004.79 1005.27 1005.85 1006.79 1008.05 1009.16 1010.20 1011.27 1012.21 1012.92 1013.47 1014.00 1014.45 1014.74 1015.19 1015.81 1016.17 1016.52 1017.18 1017.58 1017.58 1017.54 1017.52 1017.30 1017.41 1017.51 1017.63 1017.37 1017.19 1016.94 1016.71 1016.19 1015.75 1015.23
1005.08 1004.15 1002.59 1000.98 1001.36 1001.70 1002.39 1001.18 1001.00 1001.20 1001.79 1002.06 1002.52 1002.92 1003.42 1004.17 1004.83 1005.62 1007.03 1008.31 1009.34 1010.17 1011.40 1012.38 1012.93 1013.76 1014.20 1014.64 1014.86 1015.33 1015.99 1016.46 1016.93 1017.27 1017.74 1018.05 1018.15 1018.06 1017.84 1017.77 1018.03 1018.15 1017.74 1017.71 1017.53 1017.15 1016.68 1016.13 1015.73
1003.74 1002.78 1001.32 1000.61 1001.14 1001.66 1002.14 1001.26 1000.57 1000.31 1000.48 1001.16 1002.01 1002.35 1002.88 1003.70 1004.76 1005.69 1007.25 1008.44 1009.25 1010.14 1011.37 1012.44 1013.21 1013.87 1014.56 1014.99 1015.34 1015.91 1016.48 1016.63 1017.04 1017.37 1017.75 1018.16 1018.41 1018.48 1018.27 1018.41 1018.52 1018.08 1017.80 1017.92 1018.00 1017.86 1017.30 1016.77 1016.08
1002.13 1001.41 1001.01 1000.83 1000.54 1001.49 1001.19 1000.84 1000.78 1000.81 1000.82 1001.04 1001.41 1001.51 1002.11 1003.11 1004.49 1005.93 1007.47 1008.65 1009.59 1010.41 1011.57 1012.56 1013.27 1014.01 1014.55 1015.00 1015.47 1015.84 1016.34 1016.66 1017.13 1017.62 1018.19 1018.25 1018.55 1018.67 1018.46 1018.62 1018.84 1018.41 1018.39 1018.40 1018.52 1017.87 1017.49 1017.03 1016.62
1002.93 1002.47 1001.76 1001.21 1000.68 1001.09 1001.24 1000.70 1000.23 1000.22 1000.56 1001.11 1001.07 1001.25 1001.28 1002.26 1003.99 1005.96 1007.89 1009.06 1009.99 1010.75 1011.58 1012.48 1013.27 1014.07 1014.40 1014.70 1015.01 1015.65 1016.15 1016.84 1017.48 1018.02 1018.50 1018.61 1018.69 1018.66 1018.71 1018.85 1018.90 1018.63 1018.88 1019.26 1019.01 1018.71 1017.78 1016.98 1017.16
1003.42 1002.77 1002.02 1001.63 1001.25 1000.92 1000.61 1000.02 999.91 999.64 999.54 999.72 1000.46 1000.65 1001.08 1001.85 1003.34 1005.51 1007.70 1008.90 1009.92 1010.78 1011.68 1012.59 1013.55 1014.24 1014.32 1014.34 1014.53 1015.02 1015.88 1016.62 1017.35 1018.19 1018.78 1019.14 1019.23 1019.20 1019.33 1019.23 1019.51 1019.63 1019.13 1019.31 1019.36 1019.29 1018.50 1017.55 1017.77
1003.40 1002.86 1002.19 1001.67 1001.20 1000.62 1000.59 999.27 998.92 998.53 998.47 998.62 999.02 1000.10 1000.46 1001.27 1002.69 1004.93 1007.47 1008.89 1010.11 1010.78 1011.43 1012.20 1013.08 1013.73 1013.89 1014.15 1015.09 1015.74 1016.53 1017.23 1017.63 1018.25 1018.69 1019.22 1019.47 1019.79 1019.93 1019.96 1019.69 1019.94 1019.86 1019.96 1019.83 1019.76 1019.42 1018.84 1018.32
1002.48 1002.79 1002.48 1002.12 1002.12 1000.43 1000.02 997.36 997.39 996.86 996.57 997.23 998.30 999.11 999.87 1000.57 1002.23 1004.21 1006.81 1008.63 1009.87 1010.72 1011.59 1012.04 1012.58 1013.24 1013.88 1014.66 1014.93 1015.54 1015.81 1016.20 1016.76 1017.79 1018.69 1019.29 1019.71 1020.09 1020.22 1020.27 1020.06 1020.16 1020.40 1020.67 1020.60 1020.28 1020.03 1019.58 1018.98
1002.84 1003.43 1003.52 1002.71 1002.07 1001.35 1000.20 999.43 996.27 996.44 996.25 996.18 997.54 998.65 999.80 1000.34 1001.62 1003.48 1006.04 1007.92 1009.41 1010.55 1011.72 1012.33 1012.64 1013.11 1013.95 1014.56 1014.68 1015.22 1015.11 1015.97 1017.27 1018.28 1019.03 1019.68 1020.10 1020.29 1020.53 1020.57 1020.66 1020.81 1020.94 1021.24 1021.27 1020.87 1020.73 1020.35 1020.02
1003.88 1003.99 1004.20 1003.52 1002.71 1000.88 999.71 999.41 994.58 996.58 996.54 996.66 997.49 998.83 999.94 1000.56 1001.38 1003.02 1005.63 1007.94 1009.05 1010.19 1011.38 1012.20 1012.82 1013.23 1014.04 1014.62 1014.96 1015.26 1015.46 1016.48 1017.39 1018.21 1018.66 1019.21 1019.88 1020.41 1020.76 1020.82 1021.21 1021.39 1021.38 1021.59 1021.45 1021.28 1021.35 1020.97 1020.90
1004.25 1004.27 1003.31 1002.43 1001.80 999.34 999.14 998.11 996.82 998.03 998.57 999.20 999.66 1000.16 1001.05 1001.93 1002.60 1003.62 1005.65 1007.79 1009.19 1010.40 1011.66 1012.55 1013.20 1013.52 1014.18 1014.74 1015.22 1015.64 1016.33 1016.97 1017.52 1018.11 1018.61 1019.45 1020.25 1020.67 1021.20 1020.97 1021.28 1021.72 1022.08 1021.96 1021.71 1021.58 1021.50 1021.23 1021.18
1003.64 1003.62 1002.88 1001.87 1001.12 999.72 998.78 997.71 997.87 999.60 1000.44 1000.81 1001.70 1002.28 1002.47 1003.49 1004.32 1005.06 1006.25 1008.11 1009.49 1010.85 1012.03 1012.91 1013.33 1013.85 1014.56 1015.04 1015.56 1016.31 1017.01 1017.49 1018.16 1018.68 1019.42 1019.86 1020.52 1021.24 1021.39 1021.52 1021.76 1021.98 1022.15 1021.84 1021.95 1021.79 1021.64 1021.84 1021.55
1003.41 1003.10 1003.50 1003.48 1003.38 1002.84 1000.63 999.69 999.38 1000.46 1001.84 1002.75 1003.17 1003.74 1004.14 1004.84 1005.44 1006.25 1006.99 1008.28 1009.67 1011.08 1012.18 1013.15 1013.48 1014.40 1015.18 1015.80 1016.43 1017.10 1017.53 1018.11 1018.81 1019.37 1019.95 1020.41 1020.74 1021.36 1021.73 1021.66 1021.85 1022.10 1022.15 1022.13 1021.57 1021.88 1022.26 1021.98 1021.93
1004.37 1004.50 1004.10 1005.01 1004.67 1003.29 1001.49 1001.03 1001.08 1002.30 1002.65 1004.05 1004.55 1004.98 1005.52 1006.13 1006.59 1006.94 1007.51 1008.49 1009.58 1010.86 1012.19 1013.19 1013.73 1014.69 1015.59 1016.35 1017.03 1017.82 1018.40 1018.77 1019.45 1019.93 1020.18 1020.59 1021.19 1021.28 1021.78 1021.69 1022.02 1022.22 1022.32 1022.04 1021.79 1022.06 1022.69 1022.55 1022.51
1004.91 1004.99 1005.27 1004.79 1005.15 1004.27 1003.21 1002.93 1004.06 1004.58 1004.66 1004.80 1005.50 1005.90 1006.21 1006.57 1006.94 1007.58 1008.05 1008.73 1009.77 1010.88 1012.25 1013.75 1014.65 1015.22 1016.07 1016.87 1017.51 1018.19 1018.81 1019.37 1019.78 1019.96 1020.21 1020.95 1021.08 1022.02 1021.94 1021.97 1022.26 1022.37 1022.77 1022.37 1022.14 1022.65 1022.91 1022.79 1022.71
1005.76 1005.51 1005.69 1005.83 1005.71 1005.67 1005.40 1004.41 1005.39 1006.04 1006.37 1006.45 1006.44 1006.76 1006.79 1006.80 1007.27 1007.77 1008.21 1008.82 1009.76 1010.97 1012.26 1013.86 1014.98 1015.98 1016.94 1017.68 1018.09 1018.67 1019.36 1019.79 1019.90 1020.06 1020.45 1020.97 1021.51 1022.05 1022.04 1022.08 1022.21 1022.93 1022.87 1022.74 1022.92 1023.04 1023.40 1023.28 1022.76
Wind_Speed
16 14 9 8 9 9 15 5 7 6 6 5 7 2 17 18 15 8 11 9 17 16 13 12 10 10 9 9 7 8 9 9 9 10 10 9 9 8 6 6 5 5 5 4 4 3 2 2 2
12 10 8 9 10 14 9 12 7 7 11 5 5 4 5 13 16 15 10 13 15 15 14 12 10 10 10 10 11 9 9 10 9 10 11 10 9 8 6 5 3 2 2 2 2 2 2 2 1
14 11 11 11 14 15 10 4 8 10 8 12 6 3 7 8 9 7 14 13 14 13 13 13 10 11 10 11 11 11 9 9 10 9 10 10 9 7 6 4 2 1 1 2 3 3 0 1 2
7 9 8 11 18 16 8 4 1 10 9 8 12 11 7 7 3 11 14 13 13 11 13 10 9 8 11 9 10 10 9 8 9 8 8 9 9 7 6 4 2 2 3 4 4 4 3 4 5
9 9 12 18 18 13 2 4 8 13 11 10 10 12 9 6 5 15 14 12 13 14 13 13 10 10 11 11 10 10 9 8 8 7 7 7 7 6 5 3 3 3 4 5 6 6 5 6 7
10 7 13 16 17 8 3 5 10 12 10 11 6 13 8 12 13 13 13 13 12 13 14 13 13 12 13 13 12 11 9 8 8 8 8 8 8 8 7 5 2 2 4 5 5 6 7 7 8
13 12 16 20 17 8 9 6 12 12 11 11 5 12 9 14 13 12 13 12 12 12 13 13 13 14 15 14 13 12 10 10 9 8 9 11 11 11 11 11 9 8 5 4 3 4 5 5 7
9 11 20 19 12 15 8 5 13 13 15 8 6 7 10 16 15 14 15 13 12 10 10 10 12 11 12 11 13 13 12 12 11 9 9 9 9 9 7 11 10 8 7 6 5 4 5 6 7
10 10 14 17 11 9 10 10 10 14 7 9 6 11 11 22 17 16 15 15 13 11 12 10 10 9 10 11 11 13 12 9 10 10 6 7 4 3 7 10 7 8 7 7 6 6 7 9 14
11 13 17 11 10 8 4 11 11 11 12 10 9 6 17 19 18 18 17 16 15 14 14 11 10 10 9 8 8 7 6 6 5 4 3 5 3 5 6 6 3 3 7 6 6 9 11 13 8
13 16 17 7 6 8 14 8 15 13 17 15 16 14 17 19 18 17 16 16 15 15 11 14 9 8 9 8 6 5 4 5 5 6 4 4 2 1 1 1 1 3 1 4 6 7 6 11 8
11 15 13 12 2 10 12 13 10 13 17 10 16 19 17 20 19 19 17 16 16 14 13 13 15 11 8 8 5 6 5 5 5 6 4 2 2 2 3 4 4 4 5 7 7 6 8 9 10
15 17 11 9 10 11 13 12 12 14 13 3 5 16 19 18 19 17 16 15 15 15 13 12 10 9 8 7 7 7 6 5 6 6 7 4 4 3 4 4 4 4 5 5 6 6 7 9 9
12 10 13 14 14 14 14 15 17 14 14 8 13 16 18 18 18 16 15 16 16 15 13 12 12 10 9 8 9 7 6 7 6 6 7 7 6 5 4 4 5 5 6 7 6 7 7 8 8
13 16 16 18 18 17 12 18 21 17 17 15 15 16 18 18 18 18 16 15 15 14 14 13 12 11 11 11 9 7 6 6 6 7 8 8 8 6 5 5 5 6 6 7 7 8 8 8 8
16 17 16 11 5 14 13 17 17 21 21 18 19 17 17 19 18 18 15 15 14 14 14 13 11 12 11 10 8 7 7 6 6 6 7 9 8 7 5 5 6 6 6 7 8 8 8 8 8
16 16 18 11 14 6 12 13 16 10 22 18 19 19 17 17 17 15 16 15 14 14 15 13 13 12 11 10 9 8 8 6 6 6 6 8 8 7 5 5 6 6 5 6 7 8 7 8 8
18 15 14 16 8 11 15 16 16 8 12 15 18 19 18 17 18 16 15 14 13 13 14 13 12 13 12 9 9 7 7 7 6 6 6 6 7 6 4 5 6 5 6 6 8 8 8 8 9
18 16 19 19 18 5 14 19 17 15 17 16 17 19 18 18 18 17 14 13 13 13 15 15 14 13 10 9 8 8 7 7 6 6 7 7 6 6 6 5 6 6 6 8 9 8 9 6 10
17 18 19 20 20 18 17 21 19 18 20 20 20 19 18 18 19 20 18 16 15 14 15 14 14 13 10 8 7 7 7 6 7 6 7 7 7 8 7 6 6 7 4 7 8 9 7 5 8
19 21 19 21 20 21 18 26 26 22 27 23 21 21 19 19 20 21 19 18 16 15 15 15 15 15 10 9 7 7 7 7 6 7 6 7 7 7 6 6 6 6 6 6 7 8 9 7 6
22 18 19 16 16 16 18 20 19 16 12 24 22 20 20 19 19 21 20 18 16 15 14 15 15 14 10 10 9 11 8 8 7 5 7 6 7 6 6 6 7 6 5 6 6 7 7 7 6
22 12 13 15 16 19 20 16 18 17 14 19 15 15 18 17 18 21 20 18 16 14 12 13 13 13 12 12 10 9 8 9 7 6 8 7 6 7 6 7 7 6 5 6 7 7 8 6 7
16 10 14 13 13 18 17 19 26 9 6 8 7 10 9 11 11 17 19 16 15 14 14 13 13 13 12 11 9 9 8 10 8 8 6 5 5 5 6 6 6 6 5 6 5 6 7 7 6
16 14 11 13 12 18 11 16 16 11 8 9 6 6 4 5 8 9 17 15 14 14 13 11 13 12 11 10 9 8 9 9 9 8 6 6 4 4 5 5 6 5 5 5 4 5 5 6 6
15 19 11 11 14 15 14 20 3 10 9 8 6 4 1 3 1 5 11 13 13 13 13 12 13 12 12 11 10 9 9 6 6 6 5 4 5 4 5 5 5 5 4 5 5 5 4 5 5
14 18 18 16 15 9 9 18 2 10 10 7 8 5 5 2 5 5 9 12 12 13 13 12 13 12 11 11 10 10 8 9 8 8 7 5 6 5 5 5 5 5 5 5 4 5 5 4 4
18 4 10 7 7 13 14 18 4 7 5 6 7 7 5 2 3 6 8 12 12 13 13 13 12 12 12 11 10 8 9 9 8 7 8 7 6 6 5 5 5 4 4 5 4 3 5 5 4
12 17 11 8 14 9 12 5 6 9 7 8 8 6 6 4 0 5 7 9 11 12 12 10 10 12 11 10 10 10 9 9 9 8 8 6 6 5 5 5 5 5 4 5 5 4 4 4 5
11 13 18 12 13 13 13 15 9 6 5 7 7 6 8 5 5 2 7 9 11 11 12 12 10 10 10 10 9 9 9 8 8 8 8 7 6 5 5 5 5 4 4 5 5 5 5 5 6
Wind_Direction
276 232 242 262 244 230 267 208 330 158 201 36 73 349 78 41 13 55 129 107 113 127 126 138 122 122 114 99 81 85 94 103 114 120 123 126 132 142 141 142 149 160 161 163 162 164 144 102 80
296 284 242 273 254 261 263 91 197 173 80 142 109 139 124 69 74 105 119 140 137 132 140 137 132 132 134 121 110 95 95 103 105 111 112 116 122 128 128 126 125 126 156 180 195 200 214 162 149
264 268 268 238 241 266 310 109 195 92 153 165 123 330 101 98 64 77 114 131 136 137 122 117 134 134 131 126 119 113 103 104 102 109 118 120 121 122 121 115 113 119 243 251 248 246 209 224 228
273 220 238 257 268 270 284 91 175 151 177 194 169 112 87 44 57 128 131 140 130 111 108 123 123 109 108 107 111 104 101 102 101 103 114 119 124 129 134 138 157 215 232 249 270 270 202 220 223
231 261 263 255 264 271 312 278 202 178 177 198 202 132 97 105 133 136 137 130 127 116 122 119 100 106 105 102 98 97 104 111 111 113 119 124 128 136 152 166 202 234 262 280 290 288 257 234 245
256 241 270 264 267 194 211 232 230 201 165 194 201 124 107 144 150 137 136 134 128 124 120 123 102 90 90 94 90 88 89 92 99 95 103 97 98 91 83 67 31 317 315 309 305 307 297 279 256
253 272 265 281 291 282 205 227 238 200 184 169 215 166 109 169 139 148 133 134 133 132 130 133 124 107 90 83 84 83 81 85 85 84 87 87 86 86 83 72 60 54 48 41 11 335 318 299 288
284 273 268 270 266 273 129 214 251 224 195 148 189 168 164 161 157 147 143 140 137 129 118 113 141 132 125 111 90 86 78 76 79 78 93 102 98 96 105 121 49 41 39 37 25 2 323 290 257
255 257 259 267 262 266 127 228 202 261 171 166 191 359 109 143 160 157 151 150 146 143 127 131 133 129 126 121 116 115 117 126 130 129 154 154 108 150 103 59 49 31 12 360 349 328 303 281 263
235 251 263 13 350 303 298 247 191 229 217 192 177 125 119 156 168 168 167 157 160 154 144 135 143 137 144 123 128 112 99 82 81 78 125 102 92 45 55 97 75 42 357 292 308 283 273 257 297
254 251 288 324 286 284 280 221 261 213 230 197 198 163 160 170 178 178 175 165 160 153 151 135 134 150 149 136 145 150 143 123 98 70 49 73 109 65 119 70 46 346 15 328 314 305 309 347 321
264 259 275 277 216 263 256 267 217 237 247 210 208 162 173 179 186 184 183 165 152 155 152 149 154 164 146 151 137 127 123 117 103 78 43 62 69 55 10 18 344 350 357 350 343 331 339 319 323
255 262 267 264 256 256 266 262 255 234 245 224 257 153 181 189 192 192 189 152 156 154 149 146 141 141 138 129 117 110 121 92 97 88 55 36 54 44 25 31 14 12 358 357 341 338 333 323 320
315 290 280 264 257 248 246 247 244 245 238 214 229 187 193 197 196 192 183 168 166 154 154 145 140 141 139 119 118 113 104 116 89 76 62 50 51 20 38 31 22 13 1 345 338 345 325 325 312
277 271 262 246 237 241 241 246 245 231 221 220 213 203 201 199 203 197 185 173 177 163 151 151 141 139 135 129 125 109 109 107 101 94 70 60 41 51 15 35 18 12 355 345 347 336 333 323 320
256 256 268 252 209 225 238 253 237 223 241 215 217 217 211 203 209 195 177 179 172 163 156 151 144 142 144 127 128 117 113 105 98 89 81 66 57 34 41 39 30 1 3 360 350 343 335 330 325
228 260 251 219 178 245 206 256 248 282 202 218 234 223 216 212 210 193 182 184 180 161 158 154 148 143 138 131 113 109 118 108 96 92 87 76 62 45 38 37 29 359 15 14 354 343 339 329 327
256 242 221 251 214 211 238 241 255 256 265 223 239 241 223 209 208 190 179 188 184 166 160 156 155 149 145 138 137 130 128 123 115 102 87 79 74 57 37 57 34 10 18 10 358 349 346 326 340
274 286 286 286 286 254 265 264 259 257 211 232 237 238 228 213 202 184 179 180 187 167 171 168 157 161 159 159 154 149 140 127 116 102 98 87 76 72 48 43 36 16 36 11 8 351 349 358 355
265 263 261 269 273 272 262 259 260 256 248 232 230 231 231 214 195 178 183 185 192 179 176 172 168 170 180 169 167 144 138 130 114 106 95 79 70 57 62 46 40 25 29 35 19 5 354 7 18
251 257 265 277 289 286 268 267 258 247 246 241 222 236 226 222 200 179 188 192 192 186 183 177 176 180 182 145 126 129 118 133 143 141 115 86 79 69 62 59 54 30 21 24 24 15 16 347 22
253 250 262 256 269 269 277 285 276 281 247 217 227 215 231 213 205 181 188 191 194 191 187 187 177 179 166 167 162 165 167 166 141 129 115 108 93 77 69 62 58 53 42 25 16 22 2 6 11
259 289 287 266 263 275 260 265 268 263 249 238 198 226 222 224 198 188 185 189 190 185 185 200 180 179 163 186 174 181 189 114 138 127 139 110 101 81 69 58 53 48 45 37 20 21 16 17 2
275 259 246 253 256 256 258 252 276 299 334 312 189 165 218 228 214 187 170 183 188 182 185 195 186 182 173 186 186 192 157 154 153 154 151 135 117 104 75 72 64 48 44 30 28 27 26 19 21
240 220 242 225 214 245 260 247 248 139 102 68 99 153 174 222 223 190 162 187 188 180 185 189 196 184 174 177 174 170 155 163 157 160 141 142 129 109 83 79 69 58 43 40 28 37 35 34 29
217 223 234 251 255 275 293 240 249 78 70 78 60 24 99 118 182 205 182 187 188 177 182 191 194 173 172 167 156 146 149 151 131 124 133 114 111 100 102 92 83 74 52 44 23 38 34 22 19
249 217 252 282 284 287 264 285 210 109 97 67 63 68 70 106 150 194 184 183 185 181 186 193 187 166 163 161 152 156 149 144 132 125 130 120 122 124 110 102 89 65 62 49 40 49 10 16 19
248 7 234 200 235 234 252 257 329 47 90 120 93 89 100 135 191 201 202 182 187 185 181 191 176 169 167 157 150 150 144 132 133 136 131 119 127 122 138 109 96 93 67 58 46 41 36 13 28
202 238 242 271 228 274 278 282 36 63 41 74 86 84 78 78 89 204 209 186 190 173 176 181 181 169 154 158 151 147 140 143 146 138 126 141 121 149 122 109 104 77 79 61 64 57 38 34 31
291 292 231 236 242 246 253 269 95 77 74 35 37 28 3 22 37 185 192 183 180 175 170 178 174 154 164 157 150 146 145 154 146 136 135 138 137 145 126 120 112 125 83 68 66 54 40 33 42